Location: Home
(42.5358°N, 72.7383°W)
Time: 02:31:45
(UTC-04:00)

IRIDIUM 152 - Pass Details

Date: 12 July 2022
Orbit: 776 x 779 km, 86.4° (Epoch: 16 August)

Event Time Altitude Azimuth Distance (km) Brightness Sun altitude
Exits shadow 04:11:02 15° 214° (SSW) 2,004 ? -11.5°
Maximum altitude 04:15:00 40° 279° (W) 1,138 ? -11.0°
Drops below altitude 10° 04:19:55 10° 348° (NNW) 2,341 ? -10.3°
Sets 04:22:26 0° 356° (N) 3,273 ? -10.0°
